• en France
  • Liste des pays
  • À 7 jours
  • Température de l'eau
  • Carte satellitaire
  • Carte météo
  • Widgets météo
  • user-avatar
    Se connecter

    Météo par heure à Bangor

    Ce jour, 20 Novembre, Lundi

    Heure Température Précipitation Vent Pression Humidité
    00:00 +8°C° 0 mm 5 m/s 747 mmHg 96%
    01:00 +8°C° 0,1 mm 6 m/s 747 mmHg 94%
    02:00 +8°C° 0,1 mm 6 m/s 746 mmHg 93%
    03:00 +8°C° 0,1 mm 6 m/s 746 mmHg 91%
    04:00 +8°C° 0,1 mm 7 m/s 745 mmHg 91%
    05:00 +9°C° 0,1 mm 7 m/s 745 mmHg 91%
    06:00 +9°C° 0 mm 6 m/s 744 mmHg 91%
    07:00 +9°C° 0,1 mm 7 m/s 744 mmHg 91%
    08:00 +9°C° 0,1 mm 7 m/s 744 mmHg 91%
    09:00 +10°C° 0,1 mm 8 m/s 744 mmHg 91%
    10:00 +10°C° 0,1 mm 8 m/s 744 mmHg 91%
    11:00 +10°C° 0,1 mm 8 m/s 744 mmHg 91%
    12:00 +11°C° 0,1 mm 8 m/s 744 mmHg 91%
    13:00 +11°C° 0,3 mm 7 m/s 743 mmHg 91%
    14:00 +11°C° 0,3 mm 7 m/s 743 mmHg 92%
    15:00 +11°C° 0,3 mm 7 m/s 743 mmHg 92%
    16:00 +11°C° 0,7 mm 6 m/s 743 mmHg 93%
    17:00 +11°C° 0,7 mm 6 m/s 742 mmHg 94%
    18:00 +12°C° 0,7 mm 5 m/s 742 mmHg 95%
    19:00 +12°C° 0,6 mm 5 m/s 742 mmHg 95%
    20:00 +12°C° 0,6 mm 5 m/s 743 mmHg 96%
    21:00 +12°C° 0,6 mm 5 m/s 743 mmHg 96%
    22:00 +11°C° 0,1 mm 6 m/s 743 mmHg 95%
    23:00 +11°C° 0,1 mm 6 m/s 742 mmHg 95%

    Demain, 21 Novembre, Mardi

    Heure Température Précipitation Vent Pression Humidité
    00:00 +11°C° 0,1 mm 6 m/s 742 mmHg 94%
    01:00 +11°C° 0 mm 6 m/s 742 mmHg 94%
    02:00 +11°C° 0 mm 6 m/s 742 mmHg 94%
    03:00 +12°C° 0 mm 5 m/s 741 mmHg 94%
    04:00 +10°C° 0 mm 5 m/s 741 mmHg 94%
    05:00 +10°C° 0 mm 5 m/s 741 mmHg 94%
    06:00 +10°C° 0 mm 5 m/s 740 mmHg 94%
    07:00 +10°C° 0 mm 5 m/s 740 mmHg 93%
    08:00 +10°C° 0 mm 5 m/s 740 mmHg 93%
    09:00 +10°C° 0 mm 5 m/s 740 mmHg 92%
    10:00 +10°C° 0 mm 6 m/s 740 mmHg 91%
    11:00 +10°C° 0 mm 6 m/s 739 mmHg 89%
    12:00 +11°C° 0 mm 7 m/s 739 mmHg 88%
    13:00 +11°C° 0 mm 7 m/s 738 mmHg 87%
    14:00 +11°C° 0 mm 7 m/s 738 mmHg 87%
    15:00 +11°C° 0 mm 7 m/s 737 mmHg 86%
    16:00 +11°C° 0,1 mm 8 m/s 736 mmHg 86%
    17:00 +11°C° 0,1 mm 8 m/s 736 mmHg 86%
    18:00 +11°C° 0,1 mm 8 m/s 736 mmHg 86%
    19:00 +11°C° 0,1 mm 9 m/s 735 mmHg 86%
    20:00 +11°C° 0,1 mm 9 m/s 735 mmHg 86%
    21:00 +11°C° 0,1 mm 9 m/s 735 mmHg 86%
    22:00 +11°C° 0 mm 9 m/s 734 mmHg 86%
    23:00 +11°C° 0 mm 9 m/s 734 mmHg 85%

    Après-demain, 22 Novembre, Mercredi

    Heure Température Précipitation Vent Pression Humidité
    00:00 +11°C° 0 mm 9 m/s 733 mmHg 85%
    01:00 +11°C° 0,3 mm 9 m/s 733 mmHg 85%
    02:00 +12°C° 0,3 mm 10 m/s 732 mmHg 85%
    03:00 +12°C° 0,3 mm 11 m/s 731 mmHg 85%
    04:00 +12°C° 0,2 mm 10 m/s 731 mmHg 86%
    05:00 +12°C° 0,2 mm 10 m/s 730 mmHg 86%
    06:00 +12°C° 0,2 mm 10 m/s 730 mmHg 87%
    07:00 +12°C° 0,1 mm 10 m/s 729 mmHg 85%
    08:00 +12°C° 0,1 mm 10 m/s 729 mmHg 84%
    09:00 +12°C° 0,1 mm 11 m/s 728 mmHg 83%
    10:00 +12°C° 0,6 mm 11 m/s 727 mmHg 83%
    11:00 +12°C° 0,6 mm 12 m/s 727 mmHg 83%
    12:00 +12°C° 0,6 mm 12 m/s 726 mmHg 83%
    13:00 +12°C° 0,6 mm 12 m/s 726 mmHg 84%
    14:00 +12°C° 0,6 mm 11 m/s 725 mmHg 85%
    15:00 +12°C° 0,6 mm 10 m/s 725 mmHg 87%
    16:00 +12°C° 0,3 mm 9 m/s 724 mmHg 87%
    17:00 +11°C° 0,3 mm 9 m/s 724 mmHg 88%
    18:00 +11°C° 0,3 mm 8 m/s 724 mmHg 89%
    19:00 +11°C° 0,7 mm 8 m/s 723 mmHg 89%
    20:00 +11°C° 0,7 mm 8 m/s 723 mmHg 89%
    21:00 +11°C° 0,7 mm 8 m/s 723 mmHg 89%
    22:00 +11°C° 0,2 mm 8 m/s 723 mmHg 89%
    23:00 +10°C° 0,2 mm 8 m/s 724 mmHg 89%

    23 Novembre, Jeudi

    Heure Température Précipitation Vent Pression Humidité
    00:00 +10°C° 0,2 mm 9 m/s 724 mmHg 89%
    01:00 +10°C° 0,1 mm 9 m/s 725 mmHg 86%
    02:00 +10°C° 0,1 mm 9 m/s 726 mmHg 84%
    03:00 +8°C° 0,1 mm 10 m/s 727 mmHg 81%
    04:00 +7°C° 0 mm 9 m/s 728 mmHg 80%
    05:00 +6°C° 0 mm 9 m/s 729 mmHg 78%
    06:00 +5°C° 0 mm 8 m/s 730 mmHg 77%
    07:00 +5°C° 0 mm 8 m/s 730 mmHg 77%
    08:00 +6°C° 0 mm 8 m/s 731 mmHg 76%
    09:00 +6°C° 0 mm 8 m/s 732 mmHg 76%
    10:00 +6°C° 0,1 mm 8 m/s 732 mmHg 75%
    11:00 +7°C° 0,1 mm 8 m/s 733 mmHg 75%
    12:00 +8°C° 0,1 mm 9 m/s 733 mmHg 74%
    13:00 +9°C° 0,7 mm 8 m/s 733 mmHg 79%
    14:00 +9°C° 0,7 mm 8 m/s 733 mmHg 83%
    15:00 +9°C° 0,7 mm 7 m/s 733 mmHg 88%
    16:00 +8°C° 0,3 mm 6 m/s 733 mmHg 89%
    17:00 +8°C° 0,3 mm 5 m/s 733 mmHg 90%
    18:00 +7°C° 0,3 mm 4 m/s 734 mmHg 91%
    19:00 +7°C° 0 mm 4 m/s 734 mmHg 90%
    20:00 +7°C° 0 mm 3 m/s 735 mmHg 89%
    21:00 +7°C° 0 mm 3 m/s 735 mmHg 89%
    22:00 +7°C° 0 mm 2 m/s 735 mmHg 88%
    23:00 +7°C° 0 mm 2 m/s 735 mmHg 88%

    24 Novembre, Vendredi

    Heure Température Précipitation Vent Pression Humidité
    00:00 +8°C° 0 mm 1 m/s 735 mmHg 88%
    01:00 +8°C° 0,5 mm 1 m/s 735 mmHg 89%
    02:00 +7°C° 0,5 mm 1 m/s 735 mmHg 90%
    03:00 +7°C° 0,5 mm 1 m/s 734 mmHg 91%
    04:00 +7°C° 0,1 mm 1 m/s 734 mmHg 91%
    05:00 +7°C° 0,1 mm 1 m/s 735 mmHg 92%
    06:00 +7°C° 0,1 mm 1 m/s 735 mmHg 92%
    07:00 +7°C° 0 mm 1 m/s 735 mmHg 92%
    08:00 +7°C° 0 mm 1 m/s 735 mmHg 92%
    09:00 +7°C° 0 mm 1 m/s 735 mmHg 93%
    10:00 +7°C° 0,3 mm 2 m/s 735 mmHg 92%
    11:00 +7°C° 0,3 mm 2 m/s 735 mmHg 90%
    12:00 +8°C° 0,3 mm 2 m/s 735 mmHg 89%
    13:00 +8°C° 0,6 mm 3 m/s 736 mmHg 89%
    14:00 +7°C° 0,6 mm 3 m/s 736 mmHg 89%
    15:00 +7°C° 0,6 mm 3 m/s 736 mmHg 89%
    16:00 +6°C° 0 mm 4 m/s 736 mmHg 88%
    17:00 +5°C° 0 mm 4 m/s 737 mmHg 88%
    18:00 +4°C° 0 mm 4 m/s 737 mmHg 87%
    19:00 +4°C° 0 mm 4 m/s 738 mmHg 88%
    20:00 +3°C° 0 mm 4 m/s 739 mmHg 88%
    21:00 +3°C° 0 mm 4 m/s 739 mmHg 89%
    22:00 +3°C° 0 mm 4 m/s 740 mmHg 88%
    23:00 +1°C° 0 mm 4 m/s 740 mmHg 86%

    25 Novembre, Samedi

    Heure Température Précipitation Vent Pression Humidité
    00:00 +2°C° 0 mm 3 m/s 741 mmHg 85%
    01:00 +1°C° 0 mm 3 m/s 741 mmHg 85%
    02:00 +1°C° 0 mm 3 m/s 742 mmHg 84%
    03:00 0°C° 0 mm 3 m/s 742 mmHg 83%
    04:00 0°C° 0 mm 3 m/s 743 mmHg 82%
    05:00 0°C° 0 mm 3 m/s 744 mmHg 81%
    06:00 0°C° 0 mm 3 m/s 744 mmHg 80%
    07:00 0°C° 0 mm 4 m/s 745 mmHg 79%
    08:00 0°C° 0 mm 4 m/s 746 mmHg 78%
    09:00 0°C° 0 mm 4 m/s 746 mmHg 77%
    10:00 +1°C° 0 mm 5 m/s 747 mmHg 73%
    11:00 +2°C° 0 mm 5 m/s 747 mmHg 68%
    12:00 +3°C° 0 mm 6 m/s 747 mmHg 64%
    13:00 +3°C° 0 mm 6 m/s 748 mmHg 65%
    14:00 +3°C° 0 mm 5 m/s 748 mmHg 67%
    15:00 +2°C° 0 mm 5 m/s 748 mmHg 68%
    16:00 +1°C° 0 mm 5 m/s 749 mmHg 70%
    17:00 0°C° 0 mm 5 m/s 749 mmHg 72%
    18:00 0°C° 0 mm 5 m/s 750 mmHg 73%
    19:00 -1°C° 0 mm 5 m/s 750 mmHg 73%
    20:00 -1°C° 0 mm 5 m/s 750 mmHg 73%
    21:00 -1°C° 0 mm 5 m/s 751 mmHg 73%
    22:00 -1°C° 0 mm 5 m/s 751 mmHg 73%
    23:00 -1°C° 0 mm 5 m/s 751 mmHg 74%
    Voir plus